(167147) = 2000 AV14 = 2003 SZ207

Discovered at Socorro on 2003-09-26 by LINEAR.

Orbit

Orbit type: Main Belt

Note: WebGL enabled browser required.

epoch2022-01-21.0
epoch JD2459600.5
perihelion date2021-01-14.54959
perihelion JD2459229.04959
argument of perihelion (°)15.82388
ascending node (°)49.52500
inclination (°)3.51200
eccentricity0.2505154
perihelion distance (AU)1.9634711
Tisserand w.r.t. Jupiter3.4
ΔV w.r.t. Earth (km/sec)8.9
semimajor axis (AU)2.6197618
mean anomaly (°)86.33999
mean daily motion (°/day)0.23244010
aphelion distance (AU)3.276
period (years)4.24
P-vector [x]0.41748141
P-vector [y]0.82691735
P-vector [z]0.37671868
Q-vector [x]-0.90748989
Q-vector [y]0.35815476
Q-vector [z]0.21951600
absolute magnitude16.59
phase slope0.15
uncertainty0
referenceMPO 694643
observations used522
oppositions14
arc length (days)9657
first opposition used1995
last opposition used2022
residual rms (arc-secs)0.76
perturbers coarse indicatorM-v
perturbers precise indicator003Ek
first observation date used1995-11-23.0
last observation date used2022-05-02.0
computer namePan
JD of orbit computation2456819.467027
perihelion JD uncertainty (days)8.4406E-05
argument of perihelion uncertainty (°)8.4721E-05
ascending node uncertainty (°)8.3118E-05
inclination uncertainty (°)5.2819E-06
eccentricity uncertainty 4.4470E-08
perihelion distance uncertainty (AU)1.1272E-07
Minimum Orbit Intersection Distances (in AU)
for orbit epoch: 2459200.5, reference: E2021-B55
Mercury1.65462
Venus1.2428
Earth0.97695
Mars0.42915
Jupiter2.05855
Saturn6.69335
Uranus15.3944
Neptune27.1624

Observations

527 total observations over interval: 1995 11 23.44336 – 2022 05 02.283724
These data are available for download (format description).

Date (UT) J2000 RA J2000 Dec Magn Location Ref
1995 11 23.44336 09 23 27.61 +19 26 03.8   691 – Steward Observatory, Kitt Peak-Spacewatch MPS 91002
1995 11 23.46552 09 23 28.79 +19 26 01.6 20.9 V 691 – Steward Observatory, Kitt Peak-Spacewatch MPS 91002
1995 11 23.48825 09 23 30.04 +19 25 58.9   691 – Steward Observatory, Kitt Peak-Spacewatch MPS 91002
1999 12 07.29838 05 57 15.94 +27 07 42.2 18.7   704 – Lincoln Laboratory ETS, New Mexico MPS 91002
1999 12 07.31296 05 57 15.07 +27 07 44.8 18.7   704 – Lincoln Laboratory ETS, New Mexico MPS 91002
1999 12 07.32752 05 57 14.22 +27 07 47.2 18.7   704 – Lincoln Laboratory ETS, New Mexico MPS 91002
1999 12 07.34218 05 57 13.35 +27 07 48.9 18.5   704 – Lincoln Laboratory ETS, New Mexico MPS 91002
2000 01 03.22809 05 31 25.86 +27 50 20.5 18.2   704 – Lincoln Laboratory ETS, New Mexico MPS 9226
2000 01 03.24287 05 31 25.20 +27 50 21.1 18.6   704 – Lincoln Laboratory ETS, New Mexico MPS 9226
2000 01 03.25767 05 31 24.47 +27 50 20.6 19.4   704 – Lincoln Laboratory ETS, New Mexico MPS 9226
2000 01 03.27248 05 31 23.72 +27 50 21.6 19.1   704 – Lincoln Laboratory ETS, New Mexico MPS 9226
2000 01 04.22255 05 30 39.90 +27 50 41.0 18.4   704 – Lincoln Laboratory ETS, New Mexico MPS 9226
2000 01 04.23730 05 30 39.15 +27 50 41.4 18.9   704 – Lincoln Laboratory ETS, New Mexico MPS 9226
2000 01 04.25191 05 30 38.46 +27 50 41.3 18.8   704 – Lincoln Laboratory ETS, New Mexico MPS 9226
2000 01 04.26656 05 30 37.80 +27 50 42.6 19.2   704 – Lincoln Laboratory ETS, New Mexico MPS 9226
2000 01 04.28121 05 30 37.10 +27 50 42.3 19.1   704 – Lincoln Laboratory ETS, New Mexico MPS 9226
2003 09 26.30581 02 13 04.92 +10 03 15.0 19.4   704 – Lincoln Laboratory ETS, New Mexico MPS 86343
2003 09 26.31844 02 13 04.55 +10 03 14.5 19.1   704 – Lincoln Laboratory ETS, New Mexico MPS 86343
2003 09 26.33115 02 13 04.25 +10 03 13.7 19.2   704 – Lincoln Laboratory ETS, New Mexico MPS 86343
2003 09 26.34389 02 13 03.94 +10 03 13.6 19.0   704 – Lincoln Laboratory ETS, New Mexico MPS 86343
2003 09 27.42759 02 12 39.06 +10 02 15.4 19.6 V 691 – Steward Observatory, Kitt Peak-Spacewatch MPS 86343
2003 09 27.45439 02 12 38.34 +10 02 14.0 19.5 V 691 – Steward Observatory, Kitt Peak-Spacewatch MPS 86343
2003 09 27.48935 02 12 37.43 +10 02 11.8 19.5 V 691 – Steward Observatory, Kitt Peak-Spacewatch MPS 86343
2003 09 29.29347 02 11 51.85 +10 00 18.3 18.5   704 – Lincoln Laboratory ETS, New Mexico MPS 87086
2003 09 29.30787 02 11 51.39 +10 00 17.5 19.5   704 – Lincoln Laboratory ETS, New Mexico MPS 87086
2003 09 29.32100 02 11 51.01 +10 00 16.9 19.3   704 – Lincoln Laboratory ETS, New Mexico MPS 87086
2003 09 29.33435 02 11 50.57 +10 00 16.6 18.8   704 – Lincoln Laboratory ETS, New Mexico MPS 87086
2003 09 29.34760 02 11 50.21 +10 00 15.5 19.3   704 – Lincoln Laboratory ETS, New Mexico MPS 87086
2003 10 16.38478 02 00 21.82 +09 28 22.9 18.7 V 691 – Steward Observatory, Kitt Peak-Spacewatch MPS 87355
2003 10 16.41560 02 00 20.17 +09 28 18.4 18.8 V 691 – Steward Observatory, Kitt Peak-Spacewatch MPS 87355
2003 10 16.44330 02 00 18.70 +09 28 14.2 18.9 V 691 – Steward Observatory, Kitt Peak-Spacewatch MPS 87355
2003 10 21.22741 01 56 07.79 +09 16 35.3 18.2 R 699 – Lowell Observatory-LONEOS MPS 88247
2003 10 21.24737 01 56 06.66 +09 16 32.3   699 – Lowell Observatory-LONEOS MPS 88247
2003 10 21.26740 01 56 05.53 +09 16 29.4   699 – Lowell Observatory-LONEOS MPS 88247
2003 10 21.28646 01 56 04.45 +09 16 27.0 18.7   704 – Lincoln Laboratory ETS, New Mexico MPS 88247
2003 10 21.28745 01 56 04.40 +09 16 26.6   699 – Lowell Observatory-LONEOS MPS 88247
2003 10 21.29846 01 56 03.77 +09 16 25.4 18.8   704 – Lincoln Laboratory ETS, New Mexico MPS 88247
2003 10 21.31067 01 56 03.05 +09 16 23.5 18.7   704 – Lincoln Laboratory ETS, New Mexico MPS 88247
2003 10 21.32247 01 56 02.37 +09 16 21.7 18.8   704 – Lincoln Laboratory ETS, New Mexico MPS 88247
2003 10 21.33418 01 56 01.69 +09 16 20.0 18.6   704 – Lincoln Laboratory ETS, New Mexico MPS 88247
2003 10 23.46638 01 54 05.97 +09 11 06.3 20.0   608 – Haleakala-AMOS MPS 88247
2003 10 23.47679 01 54 05.35 +09 11 04.6 19.6   608 – Haleakala-AMOS MPS 88247
2003 10 23.48726 01 54 04.73 +09 11 04.1 19.2   608 – Haleakala-AMOS MPS 88247
2003 10 24.29435 01 53 20.74 +09 09 04.9 17.6   704 – Lincoln Laboratory ETS, New Mexico MPS 88247
2003 10 24.30735 01 53 19.97 +09 09 02.7 18.1   704 – Lincoln Laboratory ETS, New Mexico MPS 88247
2003 10 24.32040 01 53 19.24 +09 09 00.9 18.1   704 – Lincoln Laboratory ETS, New Mexico MPS 88247
2003 10 24.33361 01 53 18.48 +09 08 59.0 17.8   704 – Lincoln Laboratory ETS, New Mexico MPS 88247
2003 10 24.34595 01 53 17.78 +09 08 57.7 18.1   704 – Lincoln Laboratory ETS, New Mexico MPS 88247
2003 10 28.25718 01 49 44.21 +08 59 43.6 18.0   704 – Lincoln Laboratory ETS, New Mexico MPS 89493
2003 10 28.26936 01 49 43.50 +08 59 42.2 18.2   704 – Lincoln Laboratory ETS, New Mexico MPS 89493
2003 10 28.28182 01 49 42.88 +08 59 40.8 18.5   704 – Lincoln Laboratory ETS, New Mexico MPS 89493
2003 10 28.42629 01 49 34.89 +08 59 21.3 19.3   608 – Haleakala-AMOS MPS 89493
2003 10 28.43724 01 49 34.25 +08 59 20.3 19.1   608 – Haleakala-AMOS MPS 89493
2003 10 28.44812 01 49 33.61 +08 59 19.1 19.0   608 – Haleakala-AMOS MPS 89493
2003 11 01.25219 01 46 10.40 +08 51 09.1 18.2   704 – Lincoln Laboratory ETS, New Mexico MPS 89493
2003 11 01.26428 01 46 09.75 +08 51 07.1 18.3   704 – Lincoln Laboratory ETS, New Mexico MPS 89493
2003 11 01.27623 01 46 09.08 +08 51 06.1 18.3   704 – Lincoln Laboratory ETS, New Mexico MPS 89493
2003 11 01.28839 01 46 08.36 +08 51 04.7 18.6   704 – Lincoln Laboratory ETS, New Mexico MPS 89493
2003 11 01.30044 01 46 07.72 +08 51 03.6 18.5   704 – Lincoln Laboratory ETS, New Mexico MPS 89493
2003 11 03.48858 01 44 14.74 +08 46 55.4 20.2   608 – Haleakala-AMOS MPS 90534
2003 11 03.49919 01 44 14.21 +08 46 53.7 19.7   608 – Haleakala-AMOS MPS 90534
2003 11 03.50954 01 44 13.65 +08 46 52.8 20.3   608 – Haleakala-AMOS MPS 90534
2003 11 18.21217 01 34 01.96 +08 33 35.5 18.8 R 699 – Lowell Observatory-LONEOS MPS 92745
2003 11 18.23200 01 34 01.30 +08 33 35.1   699 – Lowell Observatory-LONEOS MPS 92745
2003 11 18.25183 01 34 00.61 +08 33 35.6   699 – Lowell Observatory-LONEOS MPS 92745
2003 11 18.27180 01 33 59.99 +08 33 36.3   699 – Lowell Observatory-LONEOS MPS 92745
2003 11 19.15267 01 33 34.52 +08 33 48.9 19.4   644 – Palomar Mountain/NEAT MPS 91002
2003 11 19.17400 01 33 33.85 +08 33 49.4 19.4   644 – Palomar Mountain/NEAT MPS 91002
2003 11 19.19491 01 33 33.20 +08 33 49.9 19.2   644 – Palomar Mountain/NEAT MPS 91002
2003 11 21.19624 01 32 39.93 +08 34 49.1 19.3   704 – Lincoln Laboratory ETS, New Mexico MPS 91837
2003 11 21.20901 01 32 39.53 +08 34 48.7 19.9   704 – Lincoln Laboratory ETS, New Mexico MPS 91837
2003 11 21.22240 01 32 39.15 +08 34 50.2 20.1   704 – Lincoln Laboratory ETS, New Mexico MPS 91837
2003 11 21.23547 01 32 38.84 +08 34 51.5 19.8   704 – Lincoln Laboratory ETS, New Mexico MPS 91837
2003 11 21.24830 01 32 38.41 +08 34 50.7 19.5   704 – Lincoln Laboratory ETS, New Mexico MPS 91837
2003 11 24.08134 01 31 37.30 +08 37 26.2 19.5 V 691 – Steward Observatory, Kitt Peak-Spacewatch MPS 91837
2003 11 24.10889 01 31 36.69 +08 37 28.3 19.5 V 691 – Steward Observatory, Kitt Peak-Spacewatch MPS 91838
2003 11 24.14060 01 31 36.02 +08 37 30.6 19.3 V 691 – Steward Observatory, Kitt Peak-Spacewatch MPS 91838
2003 11 26.20070 01 31 01.51 +08 40 18.1 19.0 R 699 – Lowell Observatory-LONEOS MPS 91838
2003 11 26.22048 01 31 01.15 +08 40 20.8   699 – Lowell Observatory-LONEOS MPS 91838
2003 11 26.24025 01 31 00.87 +08 40 22.7   699 – Lowell Observatory-LONEOS MPS 91838
2003 11 26.26002 01 31 00.55 +08 40 24.6   699 – Lowell Observatory-LONEOS MPS 91838
2003 12 20.13926 01 35 10.23 +10 07 17.3 19.3 C 704 – Lincoln Laboratory ETS, New Mexico MPS 294281
2003 12 20.15264 01 35 10.57 +10 07 21.1 19.0 C 704 – Lincoln Laboratory ETS, New Mexico MPS 294281
2003 12 20.16592 01 35 11.04 +10 07 25.7 19.4 C 704 – Lincoln Laboratory ETS, New Mexico MPS 294281
2003 12 20.17903 01 35 11.38 +10 07 29.2 19.3 C 704 – Lincoln Laboratory ETS, New Mexico MPS 294281
2003 12 21.13813 01 35 45.44 +10 12 54.4 19.6   704 – Lincoln Laboratory ETS, New Mexico MPS 94707
